When you browse on this site, cookies collect data to enhance your experience and personalize the content and advertising you see.
Visit our Privacy Policy to learn more. By continuing to use the site, you agree to this use of cookies and data.
  • In Lithuania
  • List of Countries
  • For 7 days
  • Water Temperature
  • Weather Map
  • Weather Widgets
  • user-avatar
    Login

    Hourly Weather Port Said

    Today, 8 December, Sunday

    Time Temperature Precipitation Wind Pressure Humidity
    00:00 +14°C° 0 mm 4 mps 764 mmHg 65%
    01:00 +14°C° 0 mm 4 mps 763 mmHg 68%
    02:00 +13°C° 0 mm 5 mps 763 mmHg 70%
    03:00 +14°C° 0 mm 4 mps 763 mmHg 68%
    04:00 +14°C° 0 mm 4 mps 763 mmHg 66%
    05:00 +14°C° 0 mm 4 mps 763 mmHg 65%
    06:00 +15°C° 0.1 mm 4 mps 763 mmHg 64%
    07:00 +15°C° 0.1 mm 4 mps 763 mmHg 63%
    08:00 +17°C° 0.1 mm 4 mps 763 mmHg 62%
    09:00 +18°C° 0 mm 4 mps 763 mmHg 57%
    10:00 +20°C° 0 mm 4 mps 763 mmHg 52%
    11:00 +22°C° 0 mm 4 mps 763 mmHg 46%
    12:00 +22°C° 0 mm 4 mps 762 mmHg 46%
    13:00 +22°C° 0 mm 5 mps 761 mmHg 45%
    14:00 +22°C° 0 mm 5 mps 761 mmHg 44%
    15:00 +22°C° 0 mm 4 mps 761 mmHg 50%
    16:00 +21°C° 0 mm 4 mps 761 mmHg 56%
    17:00 +20°C° 0 mm 4 mps 761 mmHg 62%
    18:00 +20°C° 0.5 mm 5 mps 761 mmHg 66%
    19:00 +19°C° 0.5 mm 6 mps 761 mmHg 71%
    20:00 +17°C° 0.5 mm 7 mps 761 mmHg 75%
    21:00 +17°C° 0.4 mm 7 mps 761 mmHg 77%
    22:00 +17°C° 0.4 mm 7 mps 761 mmHg 78%
    23:00 +16°C° 0.4 mm 8 mps 761 mmHg 79%

    Tomorrow, 9 December, Monday

    Time Temperature Precipitation Wind Pressure Humidity
    00:00 +16°C° 0.2 mm 7 mps 761 mmHg 82%
    01:00 +15°C° 0.2 mm 7 mps 760 mmHg 85%
    02:00 +15°C° 0.2 mm 6 mps 760 mmHg 87%
    03:00 +15°C° 0.3 mm 6 mps 760 mmHg 89%
    04:00 +14°C° 0.3 mm 6 mps 760 mmHg 90%
    05:00 +14°C° 0.3 mm 6 mps 760 mmHg 91%
    06:00 +14°C° 0.1 mm 5 mps 760 mmHg 89%
    07:00 +15°C° 0.1 mm 5 mps 761 mmHg 86%
    08:00 +15°C° 0.1 mm 5 mps 761 mmHg 84%
    09:00 +17°C° 0.1 mm 5 mps 761 mmHg 75%
    10:00 +20°C° 0.1 mm 4 mps 761 mmHg 65%
    11:00 +22°C° 0.1 mm 4 mps 761 mmHg 56%
    12:00 +22°C° 0.1 mm 4 mps 760 mmHg 51%
    13:00 +23°C° 0.1 mm 4 mps 760 mmHg 47%
    14:00 +23°C° 0.1 mm 4 mps 759 mmHg 42%
    15:00 +22°C° 0.1 mm 4 mps 759 mmHg 48%
    16:00 +22°C° 0.1 mm 4 mps 760 mmHg 53%
    17:00 +21°C° 0.1 mm 5 mps 760 mmHg 58%
    18:00 +20°C° 0.2 mm 5 mps 760 mmHg 60%
    19:00 +19°C° 0.2 mm 5 mps 760 mmHg 63%
    20:00 +19°C° 0.2 mm 5 mps 760 mmHg 65%
    21:00 +17°C° 0.2 mm 5 mps 760 mmHg 67%
    22:00 +17°C° 0.2 mm 5 mps 760 mmHg 69%
    23:00 +17°C° 0.2 mm 5 mps 761 mmHg 71%

    Day after tomorrow, 10 December, Tuesday

    Time Temperature Precipitation Wind Pressure Humidity
    00:00 +18°C° 0.1 mm 4 mps 760 mmHg 71%
    01:00 +17°C° 0.1 mm 4 mps 760 mmHg 72%
    02:00 +17°C° 0.1 mm 3 mps 760 mmHg 72%
    03:00 +17°C° 0 mm 3 mps 760 mmHg 74%
    04:00 +17°C° 0 mm 3 mps 760 mmHg 75%
    05:00 +16°C° 0 mm 3 mps 760 mmHg 76%
    06:00 +16°C° 0.1 mm 3 mps 760 mmHg 75%
    07:00 +17°C° 0.1 mm 3 mps 761 mmHg 74%
    08:00 +17°C° 0.1 mm 3 mps 761 mmHg 73%
    09:00 +18°C° 0 mm 3 mps 761 mmHg 66%
    10:00 +20°C° 0 mm 3 mps 761 mmHg 59%
    11:00 +21°C° 0 mm 3 mps 761 mmHg 52%
    12:00 +23°C° 0 mm 2 mps 760 mmHg 49%
    13:00 +23°C° 0 mm 2 mps 760 mmHg 47%
    14:00 +24°C° 0 mm 2 mps 759 mmHg 44%
    15:00 +22°C° 0 mm 3 mps 759 mmHg 45%
    16:00 +22°C° 0 mm 3 mps 759 mmHg 46%
    17:00 +21°C° 0 mm 3 mps 759 mmHg 48%
    18:00 +21°C° 0 mm 4 mps 759 mmHg 49%
    19:00 +20°C° 0 mm 4 mps 759 mmHg 51%
    20:00 +20°C° 0 mm 5 mps 759 mmHg 53%
    21:00 +19°C° 0 mm 5 mps 759 mmHg 56%
    22:00 +19°C° 0 mm 6 mps 759 mmHg 58%
    23:00 +17°C° 0 mm 6 mps 759 mmHg 61%

    11 December, Wednesday

    Time Temperature Precipitation Wind Pressure Humidity
    00:00 +17°C° 0 mm 6 mps 759 mmHg 60%
    01:00 +17°C° 0 mm 6 mps 758 mmHg 59%
    02:00 +17°C° 0 mm 5 mps 758 mmHg 58%
    03:00 +16°C° 0 mm 5 mps 758 mmHg 57%
    04:00 +16°C° 0 mm 5 mps 758 mmHg 57%
    05:00 +16°C° 0 mm 5 mps 758 mmHg 57%
    06:00 +16°C° 0 mm 5 mps 758 mmHg 57%
    07:00 +17°C° 0 mm 5 mps 758 mmHg 58%
    08:00 +17°C° 0 mm 5 mps 758 mmHg 59%
    09:00 +20°C° 0 mm 5 mps 758 mmHg 50%
    10:00 +22°C° 0 mm 5 mps 758 mmHg 42%
    11:00 +24°C° 0 mm 6 mps 758 mmHg 33%
    12:00 +26°C° 0 mm 5 mps 757 mmHg 30%
    13:00 +26°C° 0 mm 5 mps 757 mmHg 27%
    14:00 +27°C° 0 mm 5 mps 756 mmHg 24%
    15:00 +26°C° 0 mm 4 mps 756 mmHg 26%
    16:00 +23°C° 0 mm 4 mps 756 mmHg 28%
    17:00 +22°C° 0 mm 3 mps 756 mmHg 30%
    18:00 +21°C° 0 mm 4 mps 757 mmHg 39%
    19:00 +20°C° 0 mm 4 mps 757 mmHg 49%
    20:00 +19°C° 0 mm 5 mps 757 mmHg 59%
    21:00 +17°C° 0 mm 5 mps 757 mmHg 66%
    22:00 +17°C° 0 mm 5 mps 757 mmHg 73%
    23:00 +17°C° 0 mm 4 mps 757 mmHg 80%

    12 December, Thursday

    Time Temperature Precipitation Wind Pressure Humidity
    00:00 +15°C° 0.1 mm 5 mps 757 mmHg 78%
    01:00 +15°C° 0.1 mm 5 mps 757 mmHg 77%
    02:00 +14°C° 0.1 mm 6 mps 757 mmHg 75%
    03:00 +14°C° 0 mm 6 mps 757 mmHg 69%
    04:00 +13°C° 0 mm 6 mps 756 mmHg 63%
    05:00 +13°C° 0 mm 6 mps 756 mmHg 57%
    06:00 +13°C° 0 mm 6 mps 757 mmHg 54%
    07:00 +13°C° 0 mm 6 mps 757 mmHg 50%
    08:00 +14°C° 0 mm 5 mps 757 mmHg 47%
    09:00 +16°C° 0 mm 6 mps 757 mmHg 40%
    10:00 +17°C° 0 mm 6 mps 757 mmHg 34%
    11:00 +20°C° 0 mm 7 mps 757 mmHg 28%
    12:00 +21°C° 0 mm 6 mps 757 mmHg 27%
    13:00 +21°C° 0 mm 6 mps 756 mmHg 25%
    14:00 +21°C° 0 mm 6 mps 756 mmHg 24%
    15:00 +21°C° 0 mm 5 mps 756 mmHg 24%
    16:00 +20°C° 0 mm 5 mps 756 mmHg 25%
    17:00 +19°C° 0 mm 5 mps 756 mmHg 26%
    18:00 +17°C° 0 mm 6 mps 757 mmHg 31%
    19:00 +16°C° 0 mm 6 mps 757 mmHg 35%
    20:00 +15°C° 0 mm 6 mps 757 mmHg 40%
    21:00 +14°C° 0 mm 6 mps 758 mmHg 46%
    22:00 +13°C° 0 mm 5 mps 758 mmHg 53%
    23:00 +12°C° 0 mm 5 mps 758 mmHg 59%

    13 December, Friday

    Time Temperature Precipitation Wind Pressure Humidity
    00:00 +12°C° 0 mm 5 mps 758 mmHg 62%
    01:00 +10°C° 0 mm 5 mps 758 mmHg 64%
    02:00 +10°C° 0 mm 5 mps 758 mmHg 66%
    03:00 +10°C° 0 mm 5 mps 758 mmHg 69%
    04:00 +9°C° 0 mm 5 mps 758 mmHg 72%
    05:00 +9°C° 0 mm 5 mps 759 mmHg 74%
    06:00 +10°C° 0 mm 5 mps 759 mmHg 72%
    07:00 +10°C° 0 mm 6 mps 759 mmHg 70%
    08:00 +11°C° 0 mm 6 mps 760 mmHg 68%
    09:00 +14°C° 0 mm 6 mps 760 mmHg 60%
    10:00 +16°C° 0 mm 6 mps 760 mmHg 52%
    11:00 +20°C° 0 mm 6 mps 760 mmHg 43%
    12:00 +20°C° 0 mm 6 mps 760 mmHg 42%
    13:00 +21°C° 0 mm 5 mps 759 mmHg 40%
    14:00 +22°C° 0 mm 5 mps 759 mmHg 39%
    15:00 +21°C° 0 mm 5 mps 759 mmHg 43%
    16:00 +20°C° 0 mm 5 mps 759 mmHg 46%
    17:00 +19°C° 0 mm 6 mps 760 mmHg 50%
    18:00 +19°C° 0 mm 5 mps 760 mmHg 51%
    19:00 +17°C° 0 mm 5 mps 760 mmHg 51%
    20:00 +16°C° 0 mm 5 mps 761 mmHg 52%
    21:00 +15°C° 0 mm 5 mps 761 mmHg 52%
    22:00 +14°C° 0 mm 5 mps 761 mmHg 53%
    23:00 +13°C° 0 mm 5 mps 761 mmHg 54%
    Show more